Regional Weather Roundup
Issued by NWS

Home | Current Version | Previous Version | Graphics & Text | Print | Product List | Glossary On
Versions: 1 2 3 4 5 6 7 8 9 10 11 12 13 14 15 16 17 18 19 20 21 22 23 24 25 26 27 28 29 30 31 32 33 34 35 36 37 38 39 40 41 42 43 44 45 46 47 48 49 50
000
ASUS43 KIND 012259
RWRIN

WEATHER ROUNDUP FOR INDIANA
NATIONAL WEATHER SERVICE INDIANAPOLIS IN
700 PM EDT WED OCT 01 2014

NOTE: "FAIR" INDICATES FEW OR NO CLOUDS BELOW 12,000 FEET WITH NO
SIGNIFICANT WEATHER AND/OR OBSTRUCTIONS TO VISIBILITY.

* - STATION DOES NOT REPORT WEATHER SUCH AS PRECIPITATION OR FOG.

+ - STATION NOT QUALITY CONTROLLED BY THE NATIONAL WEATHER SERVICE.
    USE DATA WITH CAUTION...ESPECIALLY DEWPOINT AND RELATIVE
    HUMIDITY OBSERVATIONS.

INZ001>003-010>013-019-020-020000-
NORTHWEST INDIANA

CITY           SKY/WX    TMP DP  RH WIND       PRES   REMARKS
GARY /AIRPORT/ MOCLDY    68  52  56 SE8       29.91S
KNOX *+        PTCLDY    67  49  53 SE5       29.93F
VALPARAISO     NOT AVBL

$$

LMZ046-743>745-020000-
SOUTHERN LAKE MICHIGAN

STATION/POSITION TIME  TEMP WIND        PRES
                       AIR  DIR/SP/G
                 (UTC) (F)  (DEG/KT/KT) (MB)
MICHIGAN CITY    2200   67  120/ 10/ 14   N/A

$$

INZ004-005-014>016-021>024-020000-
NORTH CENTRAL INDIANA

CITY           SKY/WX    TMP DP  RH WIND       PRES   REMARKS
ELKHART        CLEAR     64  48  55 SE7       29.97S
PERU/GRISSOM   CLEAR     67  53  61 E6        29.95S
SOUTH BEND     NOT AVBL
WARSAW +       CLEAR     63  50  63 SE6       29.97S

$$

INZ006>009-017-018-025>027-020000-
NORTHEAST INDIANA

CITY           SKY/WX    TMP DP  RH WIND       PRES   REMARKS
ANGOLA *+      CLEAR     63  48  59 SE7       29.99S
FORT WAYNE     PTCLDY    63  50  62 E6        29.99F

$$

INZ028-029-035-036-043>045-051>053-020000-
WEST CENTRAL INDIANA

CITY           SKY/WX    TMP DP  RH WIND       PRES   REMARKS
GREENCASTLE +  CLEAR     73  61  64 SE3       29.94R
LAFAYETTE      PTCLDY    69  58  67 E7        29.92R
TERRE HAUTE    PTCLDY    77  61  57 SE7       29.91R

$$

INZ030>032-037>040-046>048-054>057-064-065-020000-
CENTRAL INDIANA

CITY           SKY/WX    TMP DP  RH WIND       PRES   REMARKS
FRANKFORT +    CLEAR     73  56  55 E7        29.95R
INDIANAPOLIS   PTCLDY    73  57  57 SE7       29.93S
-EAGLE CREEK   CLEAR     74  57  55 SE5       29.93F
KOKOMO *+      CLEAR     66  50  55 SE8       29.96S
MT COMFORT *+  CLEAR     72  45  37 E5        29.96S
SHELBYVILLE    CLEAR     75  56  51 E7        29.95R

$$

INZ033-034-041-042-049-050-058-059-020000-
EAST CENTRAL INDIANA

CITY           SKY/WX    TMP DP  RH WIND       PRES   REMARKS
MUNCIE         PTCLDY    67  50  54 SE6       29.97F

$$

INZ060-061-067>069-081>083-085>088-020000-
SOUTHWEST INDIANA

CITY           SKY/WX    TMP DP  RH WIND       PRES   REMARKS
EVANSVILLE     CLEAR     83  56  39 S5        29.90R

$$

INZ062-063-066-070>080-084-089>092-020000-
SOUTH CENTRAL AND SOUTHEAST INDIANA

CITY           SKY/WX    TMP DP  RH WIND       PRES   REMARKS
BLOOMINGTON    CLEAR     75  62  64 SE6       29.93S

$$




USA.gov is the U.S. government's official web portal to all federal, state and local government web resources and services.